EHI
0 0 0 0 0 0 0 0 0 0 0 0 0 0 0 0 0 0 0 0 0 0 0 0 0 0 0 0 0 0 0 0 0 0 0 0 0 0 0 0 0 0 0 0
0 0 0 0 0 0 0 0 0 0 0 0 0 0 0 0 0 0 0 0 0 0 0 0 0 0 0 0 0 0 0 0 0 0 0 0 0 0 0 0 0 0 0 0
0 0 0 0 0 0 0 0 0 0 0 0 0 0 0 0 0 0 0 0 0 0 0 0 0 0 0 0 0 0 0 0 0 0 0 0 0 0 0 0 0 0 0 0
0 0 0 0 0 0 0 0 0 0 0 0 0 0 0 0 0 0 0 0 0 0 0 0 0 0 0 0 0 0 0 0 0 0 0 0 0 0 0 0 0 0 0 0
0 0 0 0 0 0 0 0 0 0 0 0 0 0 0 0 0 0 0 0 0 0 0 0 0 0 0 0 0 0 0 0 0 0 0 0 0 0 0 0 0 0 0 0
0 0 0 0 0 0 0 0 0 0 0 0 0 0 0 0 0 0 0 0 0 0 0 0 0 0 0 0 0 0 0 0 0 0 0 0 0 0 0 0 0 0 0 0
0 0 0 0 0 0 0 0 0 0 0 0 0 0 0 0 0 0 0 0 0 0 0 0 0 0 0 0 0 0 0 0 0 0 0 0 0 0 0 0 0 0 0 0
0 0 0 0 0 0 0 0 0 0 0 0 0 0 0 0 0 0 0 0 0 0 0 0 0 0 0 0 0 0 0 0 0 0 0 0 0 0 0 0 0 0 0 0
0 0 0 0 0 0 0 0 0 0 0 0 0 0 0 0 0 0 0 0 0 0 0 0 0 0 0 0 0 0 0 0 0 0 0 0 0 0 0 0 0 0 0 0
0 0 0 0 0 0 0 0 0 0 0 0 0 0 0 0 0 0 0 0 0 0 0 0 0 0 0 0 0 0 0 0 0 0 0 0 0 0 0 0 0 0 0 0
0 0 0 0 0 0 0 0 0 0 0 0 0 0 0 0 0 0 0 0 0 0 0 0 0 0 0 0 0 0 0 0 0 0 0 0 0 0 0 0 0 0 0 0
0 0 0 0 0 0 0 0 0 0 0 0 0 0 0 0 0 0 0 0 0 0 0 0 0 0 0 0 0 0 0 0 0 0 0 0 0 0 0 0 0 0 0 0
0 0 0 0 0 0 0 0 0 0 0 0 0 0 0 0 0 0 0 0 0 0 0 0 0 0 0 0 0 0 0 0 0 0 0 0 0 0 0 0 0 0 0 0
0 0 0 0 0 0 0 0 0 0 0 0 0 0 0 0 0 0 0 0 0 0 0 0 0 0 0 0 0 0 0 0 0 0 0 0 0 0 0 0 0 0 0 0
0 0 0 0 0 0 0 0 0 0 0 0 0 0 0 0 0 0 0 0 0 0 0 0 0 0 0 0 0 0 0 0 0 0 0 0 0 0 0 0 0 0 0 0
0 0 0 0 0 0 0 0 0 0 0 0 0 0 0 0 0 0 0 0 0 0 0 0 0 0 0 0 0 0 0 0 0 0 0 0 0 0 0 0 0 0 0 0
0 0 0 0 0 0 0 0 0 0 0 0 0 0 0 0 0 0 0 0 0 0 0 0 0 0 0 0 0 0 0 0 0 0 0 0 0 0 0 0 0 0 0 0
0 0 0 0 0 0 0 0 0 0 0 0 0 0 0 0 0 0 0 0 0 0 0 0 0 0 0 0 0 0 0 0 0 0 0 0 0 0 0 0 0 0 0 0
0 0 0 0 0 0 0 0 0 0 0 0 0 0 0 0 0 0 0 0 0 0 0 0 0 0 0 0 0 0 0 0 0 0 0 0 0 0 0 0 0 0 0 0
0 0 0 0 0 0 0 0 0 0 0 0 0 0 0 0 0 0 0 0 0 0 0 0 0 0 0 0 0 0 0 0 0 0 0 0 0 0 0 0 0 0 0 0
0 0 0 0 0 0 0 0 0 0 0 0 0 0 0 0 0 0 0 0 0 0 0 0 0 0 0 0 0 0 0 0 0 0 0 0 0 0 0 0 0 0 0 0
0 0 0 0 0 0 0 0 0 0 0 0 0 0 0 0 0 0 0 0 0 0 0 0 0 0 0 0 0 0 0 0 0 0 0 0 0 0 0 0 0 0 0 0
0 0 0 0 0 0 0 0 0 0 0 0 0 0 0 0 0 0 0 0 0 0 0 0 0 0 0 0 0 0 0 0 0 0 0 0 0 0 0 0 0 0 0 0
0 0 0 0 0 0 0 0 0 0 0 0 0 0 0 0 0 0 0 0 0 0 0 0 0 0 0 0 0 0 0 0 0 0 0 0 0 0 0 0 0 0 0 0
0 0 0 0 0 0 0 0 0 0 0 0 0 0 0 0 0 0 0 0 0 0 0 0 0 0 0 0 0 0 0 0 0 0 0 0 0 0 0 0 0 0 0 0
0 0 0 0 0 0 0 0 0 0 0 0 0 0 0 0 0 0 0 0 0 0 0 0 0 0 0 0 0 0 0 0 0 0 0 0 0 0 0 0 0 0 0 0
0 0 0 0 0 0 0 0 0 0 0 0 0 0 0 0 0 0 0 0 0 0 0 0 0 0 0 0 0 0 0 0 0 0 0 0 0 0 0 0 0 0 0 0
Wind_Speed
0 1 5 9 8 7 6 3 4 6 7 6 7 8 8 9 10 10 10 11 11 11 12 12 12 12 12 12 11 11 12 12 11 10 10 10 10 9 9 10 10 10 10 8
3 5 11 12 10 8 7 4 6 10 8 6 7 8 9 10 11 11 10 10 11 12 12 12 12 11 11 11 10 10 11 10 9 9 10 9 8 8 9 9 8 9 8 7
1 1 6 9 7 6 5 4 2 5 6 8 9 9 7 8 9 10 10 10 10 10 10 10 9 9 10 9 9 9 9 8 8 8 8 7 8 8 7 7 7 7 6 6
2 5 6 1 1 5 7 8 8 10 9 10 11 10 8 7 9 10 10 10 9 8 8 8 8 8 8 8 8 8 7 7 6 7 7 6 7 7 6 5 5 4 4 4
4 4 4 1 1 1 4 5 6 10 11 11 12 11 8 8 9 9 8 8 7 6 7 7 7 7 8 7 7 7 6 6 5 6 6 6 5 4 3 3 3 2 3 4
4 4 2 2 5 2 7 4 3 7 10 9 5 5 4 5 8 8 7 6 6 6 6 6 5 6 7 6 6 6 5 5 5 5 5 5 4 3 2 2 2 1 2 2
4 3 1 4 7 3 3 4 4 5 7 5 3 4 7 7 7 7 7 6 6 6 6 5 5 6 6 6 5 4 4 4 4 4 4 4 3 2 1 1 1 1 0 1
3 3 3 5 4 3 4 3 5 5 6 8 11 11 9 8 7 7 7 6 6 6 5 4 5 5 6 4 3 3 4 4 4 3 2 3 2 1 1 2 2 2 2 2
4 4 4 1 4 4 5 6 5 6 9 12 11 10 9 7 6 6 6 5 5 6 5 4 4 5 5 2 2 3 3 3 2 2 1 1 1 1 1 2 2 2 2 2
5 2 3 4 5 4 5 6 7 10 10 10 10 9 8 7 6 5 5 5 5 5 4 3 2 3 2 2 2 3 2 1 1 1 1 0 1 1 2 2 2 2 2 2
4 3 4 3 4 5 7 9 11 10 9 9 10 9 8 6 6 5 4 4 4 4 3 2 2 2 2 2 3 2 2 2 2 2 2 0 1 1 1 1 3 4 2 1
5 6 6 3 3 6 8 9 11 11 9 8 8 8 7 6 5 5 5 4 4 3 3 2 2 2 1 2 3 3 2 2 2 2 2 2 2 2 4 2 4 5 5 3
5 5 5 5 5 6 8 9 10 11 11 10 7 8 7 5 4 5 4 5 4 4 4 3 3 2 2 3 4 4 3 3 2 2 2 2 3 4 2 1 1 0 1 1
8 8 6 4 5 7 11 11 11 11 10 9 7 8 7 6 5 5 5 4 4 4 3 3 3 2 3 3 3 3 3 3 2 2 1 2 3 4 4 3 1 2 3 4
7 7 7 6 8 9 11 13 13 11 9 8 7 8 7 7 5 4 4 4 4 3 2 2 1 2 2 1 2 2 2 2 1 1 1 2 3 3 3 3 2 1 1 3
9 9 9 9 10 10 11 13 12 9 9 8 7 7 7 6 5 4 4 5 5 3 2 2 1 2 1 1 1 0 1 1 2 2 3 3 4 3 3 3 2 1 0 1
10 8 9 9 9 10 9 9 9 8 8 8 8 7 7 6 5 4 3 4 4 3 3 2 1 2 2 2 2 1 1 2 5 4 3 4 4 3 3 3 2 2 1 1
10 9 9 10 10 10 10 9 9 9 8 8 8 7 7 6 5 4 3 3 4 2 0 1 1 2 3 3 2 1 2 3 3 3 3 3 3 3 3 3 2 2 1 1
12 12 10 10 9 9 9 8 8 8 8 8 7 6 6 5 5 4 4 4 4 2 2 2 3 3 3 4 3 1 3 4 3 2 2 3 3 2 2 2 2 1 1 1
11 11 11 10 9 9 9 8 8 8 7 7 7 6 5 5 4 4 4 3 3 3 3 1 4 4 3 4 4 2 3 3 3 2 2 2 3 2 2 2 2 2 1 1
12 12 11 10 9 9 8 9 8 7 7 8 7 7 5 4 5 5 4 1 2 2 2 3 3 2 2 3 3 2 3 3 3 3 3 3 3 3 3 3 3 2 2 1
11 11 10 10 9 8 7 7 8 8 7 7 7 6 5 4 4 4 3 3 2 2 3 3 2 2 3 4 3 2 3 3 3 3 4 4 4 4 3 3 3 2 2 1
10 9 10 9 9 8 8 7 8 7 7 7 7 6 5 5 4 5 3 3 2 4 3 2 2 3 6 4 2 2 2 3 3 3 4 4 4 4 4 3 2 2 2 1
9 9 9 8 8 8 7 7 7 6 7 7 6 6 5 4 3 3 3 5 6 4 3 2 2 4 5 3 3 3 3 3 3 4 4 4 4 3 3 3 2 2 2 2
10 9 8 9 8 6 6 6 6 6 6 5 5 5 5 5 5 5 4 5 6 4 2 2 1 3 3 2 3 3 3 3 4 5 5 4 4 3 3 3 3 2 2 2
8 7 7 7 7 5 5 5 5 5 4 4 3 3 4 4 5 5 4 5 6 5 3 2 2 3 3 2 3 3 3 4 5 5 5 4 4 4 3 3 4 3 3 3
8 7 6 5 5 5 6 6 5 5 5 5 4 4 5 5 5 5 5 4 4 4 3 3 3 3 4 4 3 3 3 4 4 4 4 4 4 3 4 4 3 3 4 4
Wind_Direction
350 82 70 54 49 48 59 99 124 111 104 106 106 108 106 103 98 92 91 90 88 88 88 87 85 83 82 82 79 80 83 84 85 85 83 80 77 76 76 79 86 90 90 84
43 86 82 61 45 52 50 48 103 107 94 91 92 94 97 101 104 99 93 92 92 91 90 88 88 89 88 86 84 84 85 84 82 83 83 81 79 80 80 82 87 91 91 89
27 108 74 42 20 43 44 20 92 103 113 115 95 83 89 100 101 100 97 91 87 85 86 87 86 89 89 87 87 87 87 86 85 85 83 83 87 83 82 85 92 98 103 102
64 57 71 150 107 84 74 52 79 101 108 101 96 83 70 83 99 98 95 91 86 83 83 81 82 83 86 86 87 88 88 87 86 86 85 84 83 82 83 89 99 109 123 132
79 83 102 82 27 182 116 70 87 113 117 114 113 92 67 64 85 94 95 94 92 90 90 88 86 90 92 88 88 88 88 88 88 89 88 85 83 82 82 90 99 124 145 158
83 100 122 299 324 121 107 100 128 134 143 151 146 111 117 99 94 94 94 94 94 91 91 92 90 93 95 92 90 89 92 93 92 91 96 95 96 87 79 99 121 145 169 190
73 89 74 311 329 59 122 185 166 144 148 147 115 126 126 116 102 99 99 96 93 91 89 92 93 92 91 89 90 95 93 91 87 93 103 104 94 79 87 92 69 26 333 268
82 95 252 306 20 91 160 136 116 114 116 112 110 110 111 109 107 105 100 94 92 90 85 80 85 91 93 92 91 86 85 88 98 114 125 118 109 76 66 72 49 15 19 1
139 185 226 9 98 120 123 114 115 114 119 123 121 121 118 113 111 106 102 96 93 98 92 79 84 101 104 112 100 93 92 97 113 129 132 137 141 125 61 64 75 51 49 31
85 103 110 90 94 98 106 112 118 125 126 125 123 124 120 117 114 109 105 106 108 106 104 98 104 113 138 156 130 113 102 121 176 181 220 58 78 121 123 119 107 89 75 55
102 139 102 85 112 116 110 113 118 121 122 126 125 125 124 121 120 117 115 115 117 120 126 144 157 168 187 174 144 146 182 234 247 232 214 173 69 74 131 174 168 148 151 151
180 191 154 162 140 126 125 129 131 128 122 123 125 124 120 118 119 119 118 116 117 125 133 147 152 173 194 170 157 161 195 238 252 244 215 176 138 77 52 89 122 132 148 156
133 129 122 125 110 115 125 128 128 127 127 124 119 122 120 119 122 123 124 129 138 147 151 153 156 175 192 182 173 180 205 227 238 245 214 175 166 157 147 36 14 77 205 245
106 99 85 90 107 113 119 119 117 115 116 117 119 120 118 116 121 126 137 152 151 145 150 160 169 213 229 207 196 212 226 237 224 228 200 172 175 172 165 170 213 289 290 285
94 106 120 113 102 108 116 119 117 117 116 113 117 120 122 124 132 142 148 140 120 115 128 130 117 290 286 233 208 233 237 231 214 198 154 143 141 146 155 166 181 237 310 320
111 102 104 108 113 117 120 123 124 125 124 122 124 129 133 134 131 125 123 122 119 122 119 97 38 321 346 75 73 333 267 189 139 123 114 118 122 130 139 148 159 178 258 306
125 127 127 125 124 125 126 128 130 130 128 129 135 134 125 117 112 117 129 128 129 135 138 129 356 345 28 63 74 55 79 102 110 107 117 129 135 146 155 158 163 175 219 270
139 141 141 138 136 132 130 130 130 130 132 136 134 128 127 132 148 164 155 124 106 97 164 257 322 23 35 27 31 60 131 133 127 125 128 135 145 158 157 160 171 175 235 319
128 130 131 131 132 132 133 134 136 137 137 136 136 140 147 156 160 152 137 132 133 158 271 310 24 52 34 7 20 76 124 132 133 135 134 140 137 137 138 143 147 152 153 53
127 131 132 132 130 132 135 139 138 138 140 138 135 137 146 158 152 141 133 145 193 213 224 118 72 59 34 5 26 72 114 132 142 148 135 129 130 126 122 123 119 115 106 79
135 137 137 137 137 138 140 141 138 141 143 140 142 152 162 165 155 145 134 150 268 245 161 115 90 66 14 5 38 93 117 126 126 127 128 128 120 112 109 106 102 101 97 74
139 140 142 141 140 142 142 139 140 142 142 144 148 149 146 143 137 137 157 187 218 138 119 114 116 70 32 37 56 102 129 133 124 118 120 123 121 117 114 114 110 101 88 69
141 142 143 145 146 146 143 143 147 148 149 152 156 160 160 165 160 147 175 229 198 140 131 153 156 64 48 48 60 96 109 116 122 125 128 129 129 128 127 125 121 114 103 68
141 144 145 144 138 138 145 156 154 153 156 158 167 165 153 146 163 193 182 188 184 160 156 184 122 66 55 57 76 89 88 97 110 119 122 124 126 127 128 128 124 119 108 88
144 145 144 142 144 153 162 159 147 148 149 162 175 167 158 162 168 190 192 196 194 183 193 219 160 97 84 95 102 98 92 99 113 116 117 121 122 122 124 126 125 119 103 89
145 147 152 156 156 156 154 147 147 156 157 169 184 173 166 174 177 177 190 205 209 207 215 231 172 148 151 154 142 124 109 102 103 107 116 119 119 117 117 118 114 104 97 97
144 143 144 146 150 154 152 152 156 168 173 172 176 176 167 172 185 193 202 214 217 208 206 199 170 155 153 151 144 136 130 125 121 121 122 118 115 114 115 113 108 101 97 97